Date String (YYYY-MM-DD hh:mm:ss) UTC,Instrument flags,absolute air pressure of the measurement (hPa),sample flow rate (lpm),inlet stack bypass flow (lpm),air temperature of the measurement (°C),ambient temperature measured by the external sensor (°C),aerosol sample conditioner tube jacket temperature (°C),OPC LED temperature (°C),internal box temperature (°C),relative humidity of the measurement (%),span deviation,mass concentration of particles derived from Lorenz-Mie calculation of OPC scattering (μg/m³),mass concentration of particles derived from Lorenz-Mie calculation of OPC scattering (μg/m³),mass concentration of particles derived from Lorenz-Mie calculation of OPC scattering (μg/m³)
DateTimeUTC,F1_M11,P_M11,Q1_M11,Q2_M11,T1_M11,T2_M11,T3_M11,T4_M11,T5_M11,U1_M11,ZSPAN_M11,X0_M11,X2_M11,X1_M11
2024-01-01 04:00:00,SystemResetWarning,0831.7,5.00,000.00,023.0,021.6,000.0,031.4,024.3,13.5,0000.0,0013.19,0006.40,0005.75
2024-01-01 04:01:00,SystemResetWarning,0831.7,5.00,000.00,023.0,021.6,000.0,031.4,024.3,13.5,0000.0,0012.78,0006.34,0005.70
2024-01-01 04:02:00,SystemResetWarning,0831.7,5.01,000.00,023.0,021.6,000.0,031.4,024.3,13.5,0000.0,0012.73,0006.30,0005.66
2024-01-01 04:03:00,SystemResetWarning,0831.7,5.01,000.00,022.9,021.6,000.0,031.4,024.3,13.5,0000.0,0012.45,0006.29,0005.64
2024-01-01 04:04:00,SystemResetWarning,0831.7,5.00,000.00,022.9,021.6,000.0,031.3,024.2,13.5,0000.0,0012.56,0006.25,0005.61
2024-01-01 04:05:00,SystemResetWarning,0831.7,5.00,000.00,022.9,021.6,000.0,031.3,024.2,13.5,0000.0,0012.91,0006.22,0005.58
2024-01-01 04:06:00,SystemResetWarning,0831.7,4.99,000.00,022.9,021.5,000.0,031.3,024.2,13.5,0000.0,0012.73,0006.22,0005.57
2024-01-01 04:07:00,SystemResetWarning,0831.7,4.99,000.00,022.9,021.5,000.0,031.3,024.2,13.6,0000.0,0012.03,0006.21,0005.58
2024-01-01 04:08:00,SystemResetWarning,0831.7,4.99,000.00,022.9,021.5,000.0,031.3,024.2,13.6,0000.0,0012.02,0006.22,0005.58
2024-01-01 04:09:00,SystemResetWarning,0831.7,5.01,000.00,022.9,021.4,000.0,031.3,024.2,13.6,0000.0,0012.57,0006.25,0005.59
2024-01-01 04:10:00,SystemResetWarning,0831.7,5.01,000.00,022.8,021.4,000.0,031.3,024.2,13.6,0000.0,0011.91,0006.26,0005.58
2024-01-01 04:11:00,SystemResetWarning,0831.7,4.99,000.00,022.8,021.4,000.0,031.2,024.2,13.6,0000.0,0011.70,0006.27,0005.59
2024-01-01 04:12:00,SystemResetWarning,0831.7,4.99,000.00,022.8,021.4,000.0,031.2,024.2,13.6,0000.0,0012.83,0006.29,0005.60
2024-01-01 04:13:00,SystemResetWarning,0831.7,5.01,000.00,022.8,021.4,000.0,031.2,024.1,13.6,0000.0,0013.34,0006.32,0005.59
2024-01-01 04:14:00,SystemResetWarning,0831.7,5.01,000.00,022.8,021.4,000.0,031.2,024.1,13.6,0000.0,0013.43,0006.28,0005.59
2024-01-01 04:15:00,SystemResetWarning,0831.7,5.01,000.00,022.8,021.4,000.0,031.2,024.1,13.6,0000.0,0013.35,0006.31,0005.60
2024-01-01 04:16:00,SystemResetWarning,0831.7,5.00,000.00,022.8,021.4,000.0,031.2,024.1,13.6,0000.0,0012.79,0006.28,0005.60
2024-01-01 04:17:00,SystemResetWarning,0831.7,5.00,000.00,022.7,021.4,000.0,031.2,024.1,13.6,0000.0,0013.32,0006.29,0005.60
2024-01-01 04:18:00,SystemResetWarning,0831.7,5.00,000.00,022.7,021.4,000.0,031.2,024.1,13.6,0000.0,0013.21,0006.28,0005.58
2024-01-01 04:19:00,SystemResetWarning,0831.7,4.99,000.00,022.7,021.4,000.0,031.1,024.1,13.6,0000.0,0013.27,0006.22,0005.57
2024-01-01 04:20:00,SystemResetWarning,0831.7,5.00,000.00,022.7,021.3,000.0,031.1,024.1,13.6,0000.0,0013.19,0006.20,0005.56
2024-01-01 04:21:00,SystemResetWarning,0831.7,5.00,000.00,022.7,021.3,000.0,031.1,024.0,13.7,0000.0,0013.48,0006.17,0005.56
2024-01-01 04:22:00,SystemResetWarning,0831.6,5.00,000.00,022.7,021.3,000.0,031.1,024.0,13.7,0000.0,0013.57,0006.13,0005.55
2024-01-01 04:23:00,SystemResetWarning,0831.7,4.99,000.00,022.7,021.3,000.0,031.1,024.0,13.6,0000.0,0012.54,0006.09,0005.52
2024-01-01 04:24:00,SystemResetWarning,0831.7,5.01,000.00,022.7,021.3,000.0,031.1,024.0,13.7,0000.0,0011.90,0006.02,0005.50
2024-01-01 04:25:00,SystemResetWarning,0831.7,5.00,000.00,022.6,021.3,000.0,031.1,024.0,13.7,0000.0,0012.07,0005.97,0005.48
2024-01-01 04:26:00,SystemResetWarning,0831.7,5.00,000.00,022.6,021.3,000.0,031.1,024.0,13.7,0000.0,0012.15,0005.92,0005.45
2024-01-01 04:27:00,SystemResetWarning,0831.7,5.01,000.00,022.6,021.3,000.0,031.1,024.0,13.7,0000.0,0012.70,0005.90,0005.42
2024-01-01 04:28:00,SystemResetWarning,0831.7,5.00,000.00,022.6,021.3,000.0,031.0,024.0,13.7,0000.0,0012.13,0005.87,0005.39
2024-01-01 04:29:00,SystemResetWarning,0831.7,5.00,000.00,022.6,021.3,000.0,031.0,024.0,13.7,0000.0,0011.98,0005.81,0005.36
2024-01-01 04:30:00,SystemResetWarning,0831.7,5.00,000.00,022.6,021.3,000.0,031.0,024.0,13.7,0000.0,0012.01,0005.81,0005.33
2024-01-01 04:31:00,SystemResetWarning,0831.7,5.00,000.00,022.6,021.3,000.0,031.0,024.0,13.8,0000.0,0011.70,0005.77,0005.30
2024-01-01 04:32:00,SystemResetWarning,0831.7,4.99,000.00,022.6,021.3,000.0,031.0,024.0,13.8,0000.0,0011.11,0005.73,0005.27
2024-01-01 04:33:00,SystemResetWarning,0831.7,4.99,000.00,022.6,021.3,000.0,031.0,024.0,13.8,0000.0,0011.21,0005.74,0005.25
2024-01-01 04:34:00,SystemResetWarning,0831.7,4.99,000.00,022.6,021.3,000.0,031.0,023.9,13.8,0000.0,0010.84,0005.76,0005.26
2024-01-01 04:35:00,SystemResetWarning,0831.7,4.99,000.00,022.6,021.3,000.0,031.0,024.0,13.7,0000.0,0010.90,0005.78,0005.26
2024-01-01 04:36:00,SystemResetWarning,0831.7,5.00,000.00,022.6,021.3,000.0,031.0,023.9,13.7,0000.0,0010.54,0005.84,0005.28
2024-01-01 04:37:00,SystemResetWarning,0831.7,5.00,000.00,022.6,021.3,000.0,030.9,023.9,13.8,0000.0,0011.17,0005.85,0005.28
2024-01-01 04:38:00,SystemResetWarning,0831.7,5.00,000.00,022.6,021.3,000.0,030.9,023.9,13.7,0000.0,0011.32,0005.86,0005.28
2024-01-01 04:39:00,SystemResetWarning,0831.7,5.00,000.00,022.6,021.3,000.0,030.9,023.9,13.8,0000.0,0011.32,0005.86,0005.31
2024-01-01 04:40:00,SystemResetWarning,0831.7,5.00,000.00,022.5,021.3,000.0,030.9,023.9,13.7,0000.0,0011.39,0005.90,0005.33
2024-01-01 04:41:00,SystemResetWarning,0831.7,5.01,000.00,022.5,021.3,000.0,030.9,023.9,13.7,0000.0,0011.31,0005.93,0005.35
2024-01-01 04:42:00,SystemResetWarning,0831.7,5.00,000.00,022.5,021.3,000.0,030.9,023.9,13.7,0000.0,0011.23,0005.98,0005.37
2024-01-01 04:43:00,SystemResetWarning,0831.8,4.98,000.00,022.5,021.2,000.0,030.9,023.9,13.7,0000.0,0011.24,0006.00,0005.39
2024-01-01 04:44:00,SystemResetWarning,0831.7,5.01,000.00,022.5,021.2,000.0,030.9,023.9,13.7,0000.0,0012.07,0006.04,0005.41
2024-01-01 04:45:00,SystemResetWarning,0832.0,5.00,000.00,022.5,021.2,000.0,030.9,023.9,13.7,0000.0,0012.99,0006.04,0005.41
2024-01-01 04:46:00,SystemResetWarning,0832.1,5.01,000.00,022.5,021.2,000.0,030.9,023.9,13.7,0000.0,0013.65,0006.06,0005.42
2024-01-01 04:47:00,SystemResetWarning,0832.1,5.00,000.00,022.5,021.2,000.0,030.9,023.9,13.7,0000.0,0014.04,0006.05,0005.41
2024-01-01 04:48:00,SystemResetWarning,0832.0,4.99,000.00,022.5,021.2,000.0,030.9,023.8,13.7,0000.0,0013.54,0006.02,0005.41
2024-01-01 04:49:00,SystemResetWarning,0831.8,5.00,000.00,022.4,021.2,000.0,030.8,023.8,13.8,0000.0,0012.82,0006.04,0005.41
2024-01-01 04:50:00,SystemResetWarning,0831.7,5.00,000.00,022.4,021.2,000.0,030.8,023.8,13.8,0000.0,0012.37,0006.02,0005.40
2024-01-01 04:51:00,SystemResetWarning,0831.7,5.00,000.00,022.4,021.2,000.0,030.8,023.8,13.8,0000.0,0012.30,0006.00,0005.40
2024-01-01 04:52:00,SystemResetWarning,0831.7,5.00,000.00,022.4,021.2,000.0,030.8,023.8,13.8,0000.0,0012.31,0006.01,0005.40
2024-01-01 04:53:00,SystemResetWarning,0831.7,5.00,000.00,022.4,021.2,000.0,030.8,023.8,13.8,0000.0,0012.25,0005.99,0005.40
2024-01-01 04:54:00,SystemResetWarning,0831.7,5.00,000.00,022.4,021.1,000.0,030.8,023.8,13.8,0000.0,0012.17,0005.97,0005.39
2024-01-01 04:55:00,SystemResetWarning,0831.7,5.00,000.00,022.4,021.1,000.0,030.8,023.8,13.8,0000.0,0012.36,0005.93,0005.38
2024-01-01 04:56:00,SystemResetWarning,0831.7,5.01,000.00,022.4,021.1,000.0,030.8,023.8,13.8,0000.0,0011.33,0005.88,0005.38
2024-01-01 04:57:00,SystemResetWarning,0831.7,5.00,000.00,022.4,021.1,000.0,030.8,023.7,13.8,0000.0,0010.88,0005.87,0005.38
2024-01-01 04:58:00,SystemResetWarning,0831.7,4.99,000.00,022.4,021.1,000.0,030.8,023.7,13.8,0000.0,0010.65,0005.87,0005.38
2024-01-01 04:59:00,SystemResetWarning,0831.7,5.00,000.00,022.4,021.1,000.0,030.7,023.7,13.8,0000.0,0010.61,0005.89,0005.39
